Location: Recife
(8.0585°S, 34.8848°W)
Time: 13:37:02
(UTC-03:00)

Tiros 1 - Pass Details

Date: 14 April 2026
Orbit: 618 x 648 km, 48.4° (Epoch: 11 May)

Event Time Altitude Azimuth Distance (km) Brightness Sun altitude
Rises 20:41:55 0° 297° (WNW) 2,946 - -51.0°
Reaches altitude 10° 20:44:34 10° 284° (WNW) 2,040 - -51.7°
Maximum altitude 20:48:28 25° 228° (SW) 1,287 - -52.6°
Drops below altitude 10° 20:52:22 10° 172° (S) 2,043 - -53.6°
Sets 20:55:02 0° 159° (SSE) 2,952 - -54.2°
